Tracking 30918 objects as of 2-Jul-2025
HD Live streaming from Space Station
objects crossing your sky now

FENGYUN 1C DEB

Track FENGYUN 1C DEB now!
10-day predictions


NORAD ID: 30648
Int'l Code: 1999-025APF
Perigee: 724.6 km
Apogee: 772.9 km
Inclination: 98.6 °
Period: 99.6 minutes
Semi major axis: 7119 km
RCS: 0.034 m2 (small)
Launch date: May 10, 1999
Source: People's Republic of China (PRC)
Launch site: Taiyaun Space Center, China (TSC)

Note: This is SATELLITE DEBRIS
Your satellite tracking list
Your tracking list is empty




NASA's NSSDC Master Catalog

Two Line Element Set (TLE):
1 30648U 99025APF 25182.21503225  .00004357  00000-0  12494-2 0  9995
2 30648  98.6434 273.6595 0033920 258.7249 130.3576 14.45124191954889
Source of the keplerian elements: AFSPC